Year,Month,Day,Hour,Minute,Value (Times are PST for temperature in C)
2010,07,16,00,00,13.00
2010,07,16,00,01,13.00
2010,07,16,00,02,13.00
2010,07,16,00,03,13.00
2010,07,16,00,04,13.00
2010,07,16,00,05,12.90
2010,07,16,00,06,12.90
2010,07,16,00,07,12.90
2010,07,16,00,08,12.90
2010,07,16,00,09,12.90
2010,07,16,00,10,12.80
2010,07,16,00,11,12.80
2010,07,16,00,12,12.80
2010,07,16,00,13,12.80
2010,07,16,00,14,12.80
2010,07,16,00,15,12.80
2010,07,16,00,16,12.80
2010,07,16,00,17,12.80
2010,07,16,00,18,12.80
2010,07,16,00,19,12.80
2010,07,16,00,20,12.80
2010,07,16,00,21,12.80
2010,07,16,00,22,12.70
2010,07,16,00,23,12.70
2010,07,16,00,24,12.70
2010,07,16,00,25,12.70
2010,07,16,00,26,12.70
2010,07,16,00,27,12.70
2010,07,16,00,28,12.70
2010,07,16,00,29,12.70
2010,07,16,00,30,12.60
2010,07,16,00,31,12.60
2010,07,16,00,32,12.60
2010,07,16,00,33,12.60
2010,07,16,00,34,12.60
2010,07,16,00,35,12.50
2010,07,16,00,36,12.50
2010,07,16,00,37,12.50
2010,07,16,00,38,12.50
2010,07,16,00,39,12.50
2010,07,16,00,40,12.40
2010,07,16,00,41,12.40
2010,07,16,00,42,12.40
2010,07,16,00,43,12.40
2010,07,16,00,44,12.40
2010,07,16,00,45,12.40
2010,07,16,00,46,12.30
2010,07,16,00,47,12.30
2010,07,16,00,48,12.30
2010,07,16,00,49,12.30
2010,07,16,00,50,12.30
2010,07,16,00,51,12.30
2010,07,16,00,52,12.30
2010,07,16,00,53,12.30
2010,07,16,00,54,12.30
2010,07,16,00,55,12.30
2010,07,16,00,56,12.30
2010,07,16,00,57,12.20
2010,07,16,00,58,12.20
2010,07,16,00,59,12.20
2010,07,16,01,00,12.20
2010,07,16,01,01,12.20
2010,07,16,01,02,12.20
2010,07,16,01,03,12.20
2010,07,16,01,04,12.20
2010,07,16,01,05,12.20
2010,07,16,01,06,12.10
2010,07,16,01,07,12.10
2010,07,16,01,08,12.10
2010,07,16,01,09,12.10
2010,07,16,01,10,12.10
2010,07,16,01,11,12.00
2010,07,16,01,12,12.00
2010,07,16,01,13,12.00
2010,07,16,01,14,12.00
2010,07,16,01,15,12.00
2010,07,16,01,16,12.00
2010,07,16,01,17,12.00
2010,07,16,01,18,11.90
2010,07,16,01,19,11.90
2010,07,16,01,20,11.90
2010,07,16,01,21,11.90
2010,07,16,01,22,11.90
2010,07,16,01,23,11.90
2010,07,16,01,24,11.90
2010,07,16,01,25,11.80
2010,07,16,01,26,11.80
2010,07,16,01,27,11.80
2010,07,16,01,28,11.80
2010,07,16,01,29,11.80
2010,07,16,01,30,11.80
2010,07,16,01,31,11.80
2010,07,16,01,32,11.80
2010,07,16,01,33,11.80
2010,07,16,01,34,11.80
2010,07,16,01,35,11.80
2010,07,16,01,36,11.80
2010,07,16,01,37,11.80
2010,07,16,01,38,11.80
2010,07,16,01,39,11.80
2010,07,16,01,40,11.70
2010,07,16,01,41,11.70
2010,07,16,01,42,11.70
2010,07,16,01,43,11.70
2010,07,16,01,44,11.60
2010,07,16,01,45,11.60
2010,07,16,01,46,11.60
2010,07,16,01,47,11.60
2010,07,16,01,48,11.60
2010,07,16,01,49,11.60
2010,07,16,01,50,11.60
2010,07,16,01,51,11.60
2010,07,16,01,52,11.40
2010,07,16,01,53,11.40
2010,07,16,01,54,11.40
2010,07,16,01,55,11.40
2010,07,16,01,56,11.40
2010,07,16,01,57,11.40
2010,07,16,01,58,11.40
2010,07,16,01,59,11.40
2010,07,16,02,00,11.40
2010,07,16,02,01,11.40
2010,07,16,02,02,11.40
2010,07,16,02,03,11.40
2010,07,16,02,04,11.30
2010,07,16,02,05,11.30
2010,07,16,02,06,11.30
2010,07,16,02,07,11.30
2010,07,16,02,08,11.30
2010,07,16,02,09,11.30
2010,07,16,02,10,11.30
2010,07,16,02,11,11.20
2010,07,16,02,12,11.20
2010,07,16,02,13,11.20
2010,07,16,02,14,11.20
2010,07,16,02,15,11.20
2010,07,16,02,16,11.10
2010,07,16,02,17,11.10
2010,07,16,02,18,11.10
2010,07,16,02,19,11.10
2010,07,16,02,20,11.10
2010,07,16,02,21,11.10
2010,07,16,02,22,11.10
2010,07,16,02,23,11.10
2010,07,16,02,24,11.10
2010,07,16,02,25,11.10
2010,07,16,02,26,11.00
2010,07,16,02,27,10.90
2010,07,16,02,28,10.90
2010,07,16,02,29,10.90
2010,07,16,02,30,10.90
2010,07,16,02,31,10.90
2010,07,16,02,32,10.90
2010,07,16,02,33,10.90
2010,07,16,02,34,10.90
2010,07,16,02,35,10.90
2010,07,16,02,36,10.90
2010,07,16,02,37,10.90
2010,07,16,02,38,10.90
2010,07,16,02,39,10.90
2010,07,16,02,40,10.90
2010,07,16,02,41,10.80
2010,07,16,02,42,10.80
2010,07,16,02,43,10.80
2010,07,16,02,44,10.80
2010,07,16,02,45,10.70
2010,07,16,02,46,10.70
2010,07,16,02,47,10.70
2010,07,16,02,48,10.70
2010,07,16,02,49,10.60
2010,07,16,02,50,10.60
2010,07,16,02,51,10.60
2010,07,16,02,52,10.60
2010,07,16,02,53,10.60
2010,07,16,02,54,10.60
2010,07,16,02,55,10.60
2010,07,16,02,56,10.60
2010,07,16,02,57,10.60
2010,07,16,02,58,10.60
2010,07,16,02,59,10.60
2010,07,16,03,00,10.60
2010,07,16,03,01,10.60
2010,07,16,03,02,10.60
2010,07,16,03,03,10.60
2010,07,16,03,04,10.60
2010,07,16,03,05,10.40
2010,07,16,03,06,10.40
2010,07,16,03,07,10.40
2010,07,16,03,08,10.40
2010,07,16,03,09,10.40
2010,07,16,03,10,10.40
2010,07,16,03,11,10.40
2010,07,16,03,12,10.40
2010,07,16,03,13,10.40
2010,07,16,03,14,10.40
2010,07,16,03,15,10.40
2010,07,16,03,16,10.40
2010,07,16,03,17,10.40
2010,07,16,03,18,10.40
2010,07,16,03,19,10.40
2010,07,16,03,20,10.30
2010,07,16,03,21,10.30
2010,07,16,03,22,10.30
2010,07,16,03,23,10.30
2010,07,16,03,24,10.30
2010,07,16,03,25,10.30
2010,07,16,03,26,10.30
2010,07,16,03,27,10.30
2010,07,16,03,28,10.30
2010,07,16,03,29,10.30
2010,07,16,03,30,10.30
2010,07,16,03,31,10.30
2010,07,16,03,32,10.30
2010,07,16,03,33,10.20
2010,07,16,03,34,10.20
2010,07,16,03,35,10.20
2010,07,16,03,36,10.20
2010,07,16,03,37,10.20
2010,07,16,03,38,10.20
2010,07,16,03,39,10.20
2010,07,16,03,40,10.20
2010,07,16,03,41,10.20
2010,07,16,03,42,10.20
2010,07,16,03,43,10.20
2010,07,16,03,44,10.20
2010,07,16,03,45,10.10
2010,07,16,03,46,10.10
2010,07,16,03,47,10.10
2010,07,16,03,48,10.10
2010,07,16,03,49,10.10
2010,07,16,03,50,10.10
2010,07,16,03,51,10.10
2010,07,16,03,52,10.10
2010,07,16,03,53,10.10
2010,07,16,03,54,10.10
2010,07,16,03,55,10.10
2010,07,16,03,56,10.10
2010,07,16,03,57,10.00
2010,07,16,03,58,9.90
2010,07,16,03,59,9.90
2010,07,16,04,00,9.90
2010,07,16,04,01,9.90
2010,07,16,04,02,9.90
2010,07,16,04,03,9.90
2010,07,16,04,04,9.90
2010,07,16,04,05,9.90
2010,07,16,04,06,9.90
2010,07,16,04,07,9.90
2010,07,16,04,08,9.90
2010,07,16,04,09,9.90
2010,07,16,04,10,9.90
2010,07,16,04,11,9.90
2010,07,16,04,12,9.90
2010,07,16,04,13,9.90
2010,07,16,04,14,9.90
2010,07,16,04,15,9.90
2010,07,16,04,16,9.90
2010,07,16,04,17,9.90
2010,07,16,04,18,9.90
2010,07,16,04,19,9.90
2010,07,16,04,20,9.80
2010,07,16,04,21,9.80
2010,07,16,04,22,9.80
2010,07,16,04,23,9.80
2010,07,16,04,24,9.80
2010,07,16,04,25,9.80
2010,07,16,04,26,9.80
2010,07,16,04,27,9.70
2010,07,16,04,28,9.70
2010,07,16,04,29,9.70
2010,07,16,04,30,9.70
2010,07,16,04,31,9.70
2010,07,16,04,32,9.70
2010,07,16,04,33,9.70
2010,07,16,04,34,9.70
2010,07,16,04,35,9.70
2010,07,16,04,36,9.70
2010,07,16,04,37,9.70
2010,07,16,04,38,9.70
2010,07,16,04,39,9.70
2010,07,16,04,40,9.70
2010,07,16,04,41,9.70
2010,07,16,04,42,9.70
2010,07,16,04,43,9.70
2010,07,16,04,44,9.60
2010,07,16,04,45,9.60
2010,07,16,04,46,9.60
2010,07,16,04,47,9.60
2010,07,16,04,48,9.60
2010,07,16,04,49,9.60
2010,07,16,04,50,9.50
2010,07,16,04,51,9.50
2010,07,16,04,52,9.50
2010,07,16,04,53,9.50
2010,07,16,04,54,9.50
2010,07,16,04,55,9.40
2010,07,16,04,56,9.40
2010,07,16,04,57,9.40
2010,07,16,04,58,9.40
2010,07,16,04,59,9.30
2010,07,16,05,00,9.30
2010,07,16,05,01,9.30
2010,07,16,05,02,9.30
2010,07,16,05,03,9.30
2010,07,16,05,04,9.20
2010,07,16,05,05,9.20
2010,07,16,05,06,9.20
2010,07,16,05,07,9.20
2010,07,16,05,08,9.30
2010,07,16,05,09,9.30
2010,07,16,05,10,9.20
2010,07,16,05,11,9.20
2010,07,16,05,12,9.20
2010,07,16,05,13,9.20
2010,07,16,05,14,9.20
2010,07,16,05,15,9.20
2010,07,16,05,16,9.20
2010,07,16,05,17,9.20
2010,07,16,05,18,9.20
2010,07,16,05,19,9.20
2010,07,16,05,20,9.20
2010,07,16,05,21,9.20
2010,07,16,05,22,9.20
2010,07,16,05,23,9.20
2010,07,16,05,24,9.20
2010,07,16,05,25,9.20
2010,07,16,05,26,9.20
2010,07,16,05,27,9.10
2010,07,16,05,28,9.10
2010,07,16,05,29,9.10
2010,07,16,05,30,9.10
2010,07,16,05,31,9.10
2010,07,16,05,32,9.10
2010,07,16,05,33,9.00
2010,07,16,05,34,9.00
2010,07,16,05,35,9.00
2010,07,16,05,36,9.00
2010,07,16,05,37,9.00
2010,07,16,05,38,9.00
2010,07,16,05,39,9.00
2010,07,16,05,40,9.00
2010,07,16,05,41,9.00
2010,07,16,05,42,9.00
2010,07,16,05,43,9.00
2010,07,16,05,44,8.90
2010,07,16,05,45,8.90
2010,07,16,05,46,8.90
2010,07,16,05,47,8.90
2010,07,16,05,48,8.90
2010,07,16,05,49,8.90
2010,07,16,05,50,8.90
2010,07,16,05,51,8.90
2010,07,16,05,52,8.90
2010,07,16,05,53,8.90
2010,07,16,05,54,8.90
2010,07,16,05,55,8.90
2010,07,16,05,56,8.90
2010,07,16,05,57,8.90
2010,07,16,05,58,8.90
2010,07,16,05,59,9.00
2010,07,16,06,00,9.00
2010,07,16,06,01,9.00
2010,07,16,06,02,9.00
2010,07,16,06,03,9.00
2010,07,16,06,04,9.00
2010,07,16,06,05,9.00
2010,07,16,06,06,9.00
2010,07,16,06,07,9.00
2010,07,16,06,08,9.00
2010,07,16,06,09,9.00
2010,07,16,06,10,9.00
2010,07,16,06,11,9.00
2010,07,16,06,12,9.00
2010,07,16,06,13,9.00
2010,07,16,06,14,9.00
2010,07,16,06,15,9.00
2010,07,16,06,16,9.00
2010,07,16,06,17,9.00
2010,07,16,06,18,9.00
2010,07,16,06,19,9.00
2010,07,16,06,20,9.00
2010,07,16,06,21,9.00
2010,07,16,06,22,9.00
2010,07,16,06,23,9.00
2010,07,16,06,24,9.00
2010,07,16,06,25,9.00
2010,07,16,06,26,8.90
2010,07,16,06,27,8.90
2010,07,16,06,28,8.90
2010,07,16,06,29,8.90
2010,07,16,06,30,8.90
2010,07,16,06,31,8.90
2010,07,16,06,32,8.90
2010,07,16,06,33,8.90
2010,07,16,06,34,8.90
2010,07,16,06,35,8.90
2010,07,16,06,36,9.00
2010,07,16,06,37,9.00
2010,07,16,06,38,9.00
2010,07,16,06,39,9.10
2010,07,16,06,40,9.20
2010,07,16,06,41,9.20
2010,07,16,06,42,9.20
2010,07,16,06,43,9.30
2010,07,16,06,44,9.40
2010,07,16,06,45,9.50
2010,07,16,06,46,9.70
2010,07,16,06,47,9.70
2010,07,16,06,48,9.80
2010,07,16,06,49,9.90
2010,07,16,06,50,10.00
2010,07,16,06,51,10.10
2010,07,16,06,52,10.10
2010,07,16,06,53,10.10
2010,07,16,06,54,10.10
2010,07,16,06,55,10.20
2010,07,16,06,56,10.20
2010,07,16,06,57,10.20
2010,07,16,06,58,10.20
2010,07,16,06,59,10.20
2010,07,16,07,00,10.20
2010,07,16,07,01,10.30
2010,07,16,07,02,10.30
2010,07,16,07,03,10.40
2010,07,16,07,04,10.40
2010,07,16,07,05,10.60
2010,07,16,07,06,10.60
2010,07,16,07,07,10.70
2010,07,16,07,08,10.80
2010,07,16,07,09,10.90
2010,07,16,07,10,11.00
2010,07,16,07,11,11.10
2010,07,16,07,12,11.20
2010,07,16,07,13,11.30
2010,07,16,07,14,11.30
2010,07,16,07,15,11.40
2010,07,16,07,16,11.40
2010,07,16,07,17,11.40
2010,07,16,07,18,11.40
2010,07,16,07,19,11.40
2010,07,16,07,20,11.40
2010,07,16,07,21,11.40
2010,07,16,07,22,11.50
2010,07,16,07,23,11.60
2010,07,16,07,24,11.60
2010,07,16,07,25,11.60
2010,07,16,07,26,11.70
2010,07,16,07,27,11.70
2010,07,16,07,28,11.80
2010,07,16,07,29,11.80
2010,07,16,07,30,11.80
2010,07,16,07,31,11.90
2010,07,16,07,32,11.90
2010,07,16,07,33,12.00
2010,07,16,07,34,12.00
2010,07,16,07,35,12.10
2010,07,16,07,36,12.10
2010,07,16,07,37,12.20
2010,07,16,07,38,12.30
2010,07,16,07,39,12.50
2010,07,16,07,40,12.60
2010,07,16,07,41,12.70
2010,07,16,07,42,12.80
2010,07,16,07,43,12.90
2010,07,16,07,44,13.10
2010,07,16,07,45,13.20
2010,07,16,07,46,13.30
2010,07,16,07,47,13.40
2010,07,16,07,48,13.50
2010,07,16,07,49,13.60
2010,07,16,07,50,13.80
2010,07,16,07,51,13.90
2010,07,16,07,52,14.00
2010,07,16,07,53,14.10
2010,07,16,07,54,14.20
2010,07,16,07,55,14.20
2010,07,16,07,56,14.40
2010,07,16,07,57,14.50
2010,07,16,07,58,14.60
2010,07,16,07,59,14.60
2010,07,16,08,00,14.70
2010,07,16,08,01,14.70
2010,07,16,08,02,14.80
2010,07,16,08,03,14.80
2010,07,16,08,04,14.80
2010,07,16,08,05,14.70
2010,07,16,08,06,14.70
2010,07,16,08,07,14.60
2010,07,16,08,08,14.60
2010,07,16,08,09,14.60
2010,07,16,08,10,14.60
2010,07,16,08,11,14.60
2010,07,16,08,12,14.50
2010,07,16,08,13,14.50
2010,07,16,08,14,14.50
2010,07,16,08,15,14.50
2010,07,16,08,16,14.60
2010,07,16,08,17,14.60
2010,07,16,08,18,14.70
2010,07,16,08,19,14.70
2010,07,16,08,20,14.80
2010,07,16,08,21,14.80
2010,07,16,08,22,14.80
2010,07,16,08,23,14.80
2010,07,16,08,24,15.00
2010,07,16,08,25,15.10
2010,07,16,08,26,15.30
2010,07,16,08,27,15.40
2010,07,16,08,28,15.60
2010,07,16,08,29,15.70
2010,07,16,08,30,15.80
2010,07,16,08,31,15.90
2010,07,16,08,32,16.00
2010,07,16,08,33,16.10
2010,07,16,08,34,16.20
2010,07,16,08,35,16.20
2010,07,16,08,36,16.20
2010,07,16,08,37,16.20
2010,07,16,08,38,16.30
2010,07,16,08,39,16.40
2010,07,16,08,40,16.50
2010,07,16,08,41,16.60
2010,07,16,08,42,16.70
2010,07,16,08,43,16.80
2010,07,16,08,44,16.90
2010,07,16,08,45,17.00
2010,07,16,08,46,17.10
2010,07,16,08,47,17.20
2010,07,16,08,48,17.30
2010,07,16,08,49,17.30
2010,07,16,08,50,17.40
2010,07,16,08,51,17.50
2010,07,16,08,52,17.50
2010,07,16,08,53,17.60
2010,07,16,08,54,17.60
2010,07,16,08,55,17.70
2010,07,16,08,56,17.70
2010,07,16,08,57,17.80
2010,07,16,08,58,17.90
2010,07,16,08,59,17.90
2010,07,16,09,00,17.90
2010,07,16,09,01,17.90
2010,07,16,09,02,17.90
2010,07,16,09,03,17.80
2010,07,16,09,04,17.70
2010,07,16,09,05,17.70
2010,07,16,09,06,17.70
2010,07,16,09,07,17.80
2010,07,16,09,08,17.80
2010,07,16,09,09,17.90
2010,07,16,09,10,17.90
2010,07,16,09,11,18.00
2010,07,16,09,12,18.10
2010,07,16,09,13,18.20
2010,07,16,09,14,18.30
2010,07,16,09,15,18.30
2010,07,16,09,16,18.30
2010,07,16,09,17,18.20
2010,07,16,09,18,18.20
2010,07,16,09,19,18.20
2010,07,16,09,20,18.20
2010,07,16,09,21,18.20
2010,07,16,09,22,18.20
2010,07,16,09,23,18.20
2010,07,16,09,24,18.30
2010,07,16,09,25,18.40
2010,07,16,09,26,18.40
2010,07,16,09,27,18.50
2010,07,16,09,28,18.60
2010,07,16,09,29,18.70
2010,07,16,09,30,18.80
2010,07,16,09,31,18.90
2010,07,16,09,32,19.00
2010,07,16,09,33,19.00
2010,07,16,09,34,18.90
2010,07,16,09,35,18.90
2010,07,16,09,36,18.90
2010,07,16,09,37,18.90
2010,07,16,09,38,18.80
2010,07,16,09,39,18.80
2010,07,16,09,40,18.90
2010,07,16,09,41,18.90
2010,07,16,09,42,18.80
2010,07,16,09,43,18.90
2010,07,16,09,44,18.90
2010,07,16,09,45,18.90
2010,07,16,09,46,19.00
2010,07,16,09,47,19.10
2010,07,16,09,48,19.00
2010,07,16,09,49,18.90
2010,07,16,09,50,18.90
2010,07,16,09,51,18.90
2010,07,16,09,52,18.80
2010,07,16,09,53,18.80
2010,07,16,09,54,18.80
2010,07,16,09,55,18.90
2010,07,16,09,56,19.00
2010,07,16,09,57,19.10
2010,07,16,09,58,19.20
2010,07,16,09,59,19.30
2010,07,16,10,00,19.40
2010,07,16,10,01,19.30
2010,07,16,10,02,19.40
2010,07,16,10,03,19.40
2010,07,16,10,04,19.40
2010,07,16,10,05,19.30
2010,07,16,10,06,19.10
2010,07,16,10,07,19.00
2010,07,16,10,08,18.90
2010,07,16,10,09,18.90
2010,07,16,10,10,18.90
2010,07,16,10,11,18.90
2010,07,16,10,12,18.90
2010,07,16,10,13,18.80
2010,07,16,10,14,18.80
2010,07,16,10,15,18.80
2010,07,16,10,16,18.80
2010,07,16,10,17,18.80
2010,07,16,10,18,18.90
2010,07,16,10,19,18.90
2010,07,16,10,20,18.90
2010,07,16,10,21,19.00
2010,07,16,10,22,19.10
2010,07,16,10,23,19.10
2010,07,16,10,24,19.10
2010,07,16,10,25,19.20
2010,07,16,10,26,19.30
2010,07,16,10,27,19.30
2010,07,16,10,28,19.20
2010,07,16,10,29,19.00
2010,07,16,10,30,18.90
2010,07,16,10,31,18.80
2010,07,16,10,32,18.70
2010,07,16,10,33,18.70
2010,07,16,10,34,18.70
2010,07,16,10,35,18.70
2010,07,16,10,36,18.60
2010,07,16,10,37,18.50
2010,07,16,10,38,18.40
2010,07,16,10,39,18.30
2010,07,16,10,40,18.10
2010,07,16,10,41,18.00
2010,07,16,10,42,17.80
2010,07,16,10,43,17.80
2010,07,16,10,44,17.90
2010,07,16,10,45,18.00
2010,07,16,10,46,18.10
2010,07,16,10,47,18.20
2010,07,16,10,48,18.30
2010,07,16,10,49,18.50
2010,07,16,10,50,18.70
2010,07,16,10,51,18.90
2010,07,16,10,52,19.00
2010,07,16,10,53,19.10
2010,07,16,10,54,19.00
2010,07,16,10,55,18.90
2010,07,16,10,56,18.90
2010,07,16,10,57,18.90
2010,07,16,10,58,18.90
2010,07,16,10,59,19.10
2010,07,16,11,00,19.00
2010,07,16,11,01,18.90
2010,07,16,11,02,18.90
2010,07,16,11,03,18.90
2010,07,16,11,04,18.90
2010,07,16,11,05,18.80
2010,07,16,11,06,18.80
2010,07,16,11,07,18.60
2010,07,16,11,08,18.30
2010,07,16,11,09,18.10
2010,07,16,11,10,18.10
2010,07,16,11,11,18.10
2010,07,16,11,12,18.20
2010,07,16,11,13,18.40
2010,07,16,11,14,18.60
2010,07,16,11,15,18.80
2010,07,16,11,16,18.90
2010,07,16,11,17,18.90
2010,07,16,11,18,18.80
2010,07,16,11,19,18.80
2010,07,16,11,20,18.70
2010,07,16,11,21,18.70
2010,07,16,11,22,18.50
2010,07,16,11,23,18.60
2010,07,16,11,24,18.60
2010,07,16,11,25,18.70
2010,07,16,11,26,18.80
2010,07,16,11,27,18.80
2010,07,16,11,28,18.80
2010,07,16,11,29,18.70
2010,07,16,11,30,18.60
2010,07,16,11,31,18.40
2010,07,16,11,32,18.40
2010,07,16,11,33,18.50
2010,07,16,11,34,18.40
2010,07,16,11,35,18.30
2010,07,16,11,36,18.20
2010,07,16,11,37,18.10
2010,07,16,11,38,18.10
2010,07,16,11,39,18.00
2010,07,16,11,40,17.90
2010,07,16,11,41,17.90
2010,07,16,11,42,17.90
2010,07,16,11,43,17.90
2010,07,16,11,44,17.90
2010,07,16,11,45,17.90
2010,07,16,11,46,17.90
2010,07,16,11,47,17.90
2010,07,16,11,48,17.90
2010,07,16,11,49,17.90
2010,07,16,11,50,18.10
2010,07,16,11,51,18.20
2010,07,16,11,52,18.20
2010,07,16,11,53,18.20
2010,07,16,11,54,18.10
2010,07,16,11,55,18.10
2010,07,16,11,56,18.10
2010,07,16,11,57,18.10
2010,07,16,11,58,18.10
2010,07,16,11,59,18.10
2010,07,16,12,00,18.20
2010,07,16,12,01,18.10
2010,07,16,12,02,17.90
2010,07,16,12,03,17.80
2010,07,16,12,04,17.80
2010,07,16,12,05,17.80
2010,07,16,12,06,17.80
2010,07,16,12,07,17.90
2010,07,16,12,08,17.90
2010,07,16,12,09,17.90
2010,07,16,12,10,17.90
2010,07,16,12,11,17.90
2010,07,16,12,12,18.00
2010,07,16,12,13,18.10
2010,07,16,12,14,18.20
2010,07,16,12,15,18.30
2010,07,16,12,16,18.40
2010,07,16,12,17,18.40
2010,07,16,12,18,18.40
2010,07,16,12,19,18.50
2010,07,16,12,20,18.50
2010,07,16,12,21,18.50
2010,07,16,12,22,18.50
2010,07,16,12,23,18.50
2010,07,16,12,24,18.50
2010,07,16,12,25,18.40
2010,07,16,12,26,18.40
2010,07,16,12,27,18.40
2010,07,16,12,28,18.30
2010,07,16,12,29,18.30
2010,07,16,12,30,18.10
2010,07,16,12,31,18.00
2010,07,16,12,32,17.90
2010,07,16,12,33,17.90
2010,07,16,12,34,17.90
2010,07,16,12,35,17.70
2010,07,16,12,36,17.60
2010,07,16,12,37,17.40
2010,07,16,12,38,17.30
2010,07,16,12,39,17.30
2010,07,16,12,40,17.30
2010,07,16,12,41,17.30
2010,07,16,12,42,17.30
2010,07,16,12,43,17.40
2010,07,16,12,44,17.60
2010,07,16,12,45,17.70
2010,07,16,12,46,17.80
2010,07,16,12,47,17.80
2010,07,16,12,48,17.90
2010,07,16,12,49,18.00
2010,07,16,12,50,18.10
2010,07,16,12,51,18.20
2010,07,16,12,52,18.20
2010,07,16,12,53,18.20
2010,07,16,12,54,18.10
2010,07,16,12,55,17.90
2010,07,16,12,56,17.90
2010,07,16,12,57,17.90
2010,07,16,12,58,17.90
2010,07,16,12,59,17.90
2010,07,16,13,00,17.90
2010,07,16,13,01,17.90
2010,07,16,13,02,17.90
2010,07,16,13,03,17.90
2010,07,16,13,04,17.90
2010,07,16,13,05,17.90
2010,07,16,13,06,18.00
2010,07,16,13,07,18.00
2010,07,16,13,08,18.10
2010,07,16,13,09,18.10
2010,07,16,13,10,18.00
2010,07,16,13,11,18.00
2010,07,16,13,12,18.10
2010,07,16,13,13,18.10
2010,07,16,13,14,18.10
2010,07,16,13,15,18.00
2010,07,16,13,16,17.90
2010,07,16,13,17,17.90
2010,07,16,13,18,17.90
2010,07,16,13,19,18.00
2010,07,16,13,20,18.20
2010,07,16,13,21,18.30
2010,07,16,13,22,18.30
2010,07,16,13,23,18.30
2010,07,16,13,24,18.30
2010,07,16,13,25,18.10
2010,07,16,13,26,17.90
2010,07,16,13,27,17.90
2010,07,16,13,28,17.80
2010,07,16,13,29,17.80
2010,07,16,13,30,17.90
2010,07,16,13,31,17.90
2010,07,16,13,32,17.90
2010,07,16,13,33,17.90
2010,07,16,13,34,17.90
2010,07,16,13,35,17.90
2010,07,16,13,36,17.90
2010,07,16,13,37,17.80
2010,07,16,13,38,17.80
2010,07,16,13,39,17.80
2010,07,16,13,40,17.80
2010,07,16,13,41,17.70
2010,07,16,13,42,17.70
2010,07,16,13,43,17.80
2010,07,16,13,44,17.80
2010,07,16,13,45,17.90
2010,07,16,13,46,18.00
2010,07,16,13,47,18.10
2010,07,16,13,48,18.20
2010,07,16,13,49,18.20
2010,07,16,13,50,18.20
2010,07,16,13,51,18.10
2010,07,16,13,52,18.10
2010,07,16,13,53,18.10
2010,07,16,13,54,18.10
2010,07,16,13,55,18.00
2010,07,16,13,56,18.00
2010,07,16,13,57,18.10
2010,07,16,13,58,18.20
2010,07,16,13,59,18.20
2010,07,16,14,00,18.20
2010,07,16,14,01,18.30
2010,07,16,14,02,18.30
2010,07,16,14,03,18.40
2010,07,16,14,04,18.50
2010,07,16,14,05,18.60
2010,07,16,14,06,18.70
2010,07,16,14,07,18.90
2010,07,16,14,08,18.90
2010,07,16,14,09,18.90
2010,07,16,14,10,18.90
2010,07,16,14,11,18.80
2010,07,16,14,12,18.80
2010,07,16,14,13,18.70
2010,07,16,14,14,18.50
2010,07,16,14,15,18.50
2010,07,16,14,16,18.40
2010,07,16,14,17,18.30
2010,07,16,14,18,18.20
2010,07,16,14,19,18.10
2010,07,16,14,20,18.00
2010,07,16,14,21,18.10
2010,07,16,14,22,18.20
2010,07,16,14,23,18.00
2010,07,16,14,24,17.90
2010,07,16,14,25,17.80
2010,07,16,14,26,17.80
2010,07,16,14,27,17.80
2010,07,16,14,28,17.90
2010,07,16,14,29,17.90
2010,07,16,14,30,17.90
2010,07,16,14,31,17.80
2010,07,16,14,32,17.80
2010,07,16,14,33,17.70
2010,07,16,14,34,17.70
2010,07,16,14,35,17.70
2010,07,16,14,36,17.80
2010,07,16,14,37,17.90
2010,07,16,14,38,18.00
2010,07,16,14,39,18.20
2010,07,16,14,40,18.30
2010,07,16,14,41,18.30
2010,07,16,14,42,18.20
2010,07,16,14,43,18.20
2010,07,16,14,44,18.20
2010,07,16,14,45,18.20
2010,07,16,14,46,18.30
2010,07,16,14,47,18.30
2010,07,16,14,48,18.40
2010,07,16,14,49,18.40
2010,07,16,14,50,18.40
2010,07,16,14,51,18.50
2010,07,16,14,52,18.50
2010,07,16,14,53,18.30
2010,07,16,14,54,18.30
2010,07,16,14,55,18.40
2010,07,16,14,56,18.40
2010,07,16,14,57,18.40
2010,07,16,14,58,18.50
2010,07,16,14,59,18.70
2010,07,16,15,00,18.70
2010,07,16,15,01,18.80
2010,07,16,15,02,18.90
2010,07,16,15,03,19.00
2010,07,16,15,04,19.10
2010,07,16,15,05,19.10
2010,07,16,15,06,19.10
2010,07,16,15,07,19.00
2010,07,16,15,08,18.90
2010,07,16,15,09,18.90
2010,07,16,15,10,18.70
2010,07,16,15,11,18.60
2010,07,16,15,12,18.60
2010,07,16,15,13,18.50
2010,07,16,15,14,18.40
2010,07,16,15,15,18.40
2010,07,16,15,16,18.50
2010,07,16,15,17,18.60
2010,07,16,15,18,18.60
2010,07,16,15,19,18.60
2010,07,16,15,20,18.40
2010,07,16,15,21,18.30
2010,07,16,15,22,18.20
2010,07,16,15,23,18.20
2010,07,16,15,24,18.30
2010,07,16,15,25,18.40
2010,07,16,15,26,18.50
2010,07,16,15,27,18.50
2010,07,16,15,28,18.50
2010,07,16,15,29,18.60
2010,07,16,15,30,18.60
2010,07,16,15,31,18.50
2010,07,16,15,32,18.50
2010,07,16,15,33,18.60
2010,07,16,15,34,18.70
2010,07,16,15,35,18.80
2010,07,16,15,36,18.80
2010,07,16,15,37,18.90
2010,07,16,15,38,18.90
2010,07,16,15,39,18.90
2010,07,16,15,40,18.90
2010,07,16,15,41,18.90
2010,07,16,15,42,18.80
2010,07,16,15,43,18.70
2010,07,16,15,44,18.70
2010,07,16,15,45,18.60
2010,07,16,15,46,18.60
2010,07,16,15,47,18.50
2010,07,16,15,48,18.50
2010,07,16,15,49,18.60
2010,07,16,15,50,18.70
2010,07,16,15,51,18.70
2010,07,16,15,52,18.60
2010,07,16,15,53,18.60
2010,07,16,15,54,18.60
2010,07,16,15,55,18.70
2010,07,16,15,56,18.70
2010,07,16,15,57,18.70
2010,07,16,15,58,18.70
2010,07,16,15,59,18.70
2010,07,16,16,00,18.60
2010,07,16,16,01,18.50
2010,07,16,16,02,18.50
2010,07,16,16,03,18.60
2010,07,16,16,04,18.70
2010,07,16,16,05,18.90
2010,07,16,16,06,18.90
2010,07,16,16,07,18.90
2010,07,16,16,08,18.90
2010,07,16,16,09,18.80
2010,07,16,16,10,18.80
2010,07,16,16,11,18.80
2010,07,16,16,12,18.80
2010,07,16,16,13,18.90
2010,07,16,16,14,18.90
2010,07,16,16,15,19.10
2010,07,16,16,16,19.10
2010,07,16,16,17,19.20
2010,07,16,16,18,19.40
2010,07,16,16,19,19.50
2010,07,16,16,20,19.50
2010,07,16,16,21,19.40
2010,07,16,16,22,19.20
2010,07,16,16,23,19.10
2010,07,16,16,24,19.20
2010,07,16,16,25,19.10
2010,07,16,16,26,19.10
2010,07,16,16,27,19.10
2010,07,16,16,28,19.10
2010,07,16,16,29,19.10
2010,07,16,16,30,19.10
2010,07,16,16,31,19.10
2010,07,16,16,32,19.10
2010,07,16,16,33,19.10
2010,07,16,16,34,19.10
2010,07,16,16,35,19.10
2010,07,16,16,36,19.10
2010,07,16,16,37,19.10
2010,07,16,16,38,19.10
2010,07,16,16,39,19.10
2010,07,16,16,40,19.20
2010,07,16,16,41,19.20
2010,07,16,16,42,19.20
2010,07,16,16,43,19.10
2010,07,16,16,44,19.10
2010,07,16,16,45,19.10
2010,07,16,16,46,19.20
2010,07,16,16,47,19.30
2010,07,16,16,48,19.40
2010,07,16,16,49,19.40
2010,07,16,16,50,19.50
2010,07,16,16,51,19.60
2010,07,16,16,52,19.70
2010,07,16,16,53,19.80
2010,07,16,16,54,19.70
2010,07,16,16,55,19.70
2010,07,16,16,56,19.70
2010,07,16,16,57,19.70
2010,07,16,16,58,19.70
2010,07,16,16,59,19.60
2010,07,16,17,00,19.60
2010,07,16,17,01,19.50
2010,07,16,17,02,19.40
2010,07,16,17,03,19.30
2010,07,16,17,04,19.30
2010,07,16,17,05,19.30
2010,07,16,17,06,19.30
2010,07,16,17,07,19.40
2010,07,16,17,08,19.40
2010,07,16,17,09,19.40
2010,07,16,17,10,19.30
2010,07,16,17,11,19.30
2010,07,16,17,12,19.10
2010,07,16,17,13,19.10
2010,07,16,17,14,19.10
2010,07,16,17,15,19.10
2010,07,16,17,16,19.10
2010,07,16,17,17,19.10
2010,07,16,17,18,19.10
2010,07,16,17,19,19.10
2010,07,16,17,20,19.20
2010,07,16,17,21,19.20
2010,07,16,17,22,19.20
2010,07,16,17,23,19.10
2010,07,16,17,24,19.10
2010,07,16,17,25,19.10
2010,07,16,17,26,19.10